User: anonymous   Login
Location: Luna
(33.8188°N, 108.9564°W)
Time: 17:39:00
(UTC+00:00)
Language:

FENGYUN 1C DEB - Orbit

View from above orbital plane
View from above orbital plane
View from above satellite
View from above satellite

Ground track
Ground track

The orbit data is extracted from the following two-line orbital elements,

1 31279U 99025BNM 24145.76729222  .00002766  00000-0  11943-2 0  9991
2 31279  98.5345 163.9325 0077258  35.5584 325.0709 14.23629410891530
Epoch (UTC): 24 May 2024 18:24:54
Eccentricity: 0.0077258
inclination: 98.5345°
perigee height: 757 km
apogee height: 868 km
right ascension of ascending node: 163.9325°
argument of perigee: 35.5584°
revolutions per day: 14.23629410
mean anomaly at epoch: 325.0709°
orbit number at epoch: 89153

The dashed part of the orbit path shows where the satellite is in the earth's shadow,  

DLR